TimePDT,TemperatureF,Dew PointF,Humidity,Sea Level PressureIn,VisibilityMPH,Wind Direction,Wind SpeedMPH,Gust SpeedMPH,PrecipitationIn,Events,Conditions,WindDirDegrees,DateUTC
12:15 AM,57.2,57.2,100,29.90,5.0,South,6.9,-,N/A,Rain,Light Rain,170,2012-10-28 07:15:00
12:55 AM,59.0,57.2,94,29.92,7.0,SSW,8.1,-,N/A,,Unknown,200,2012-10-28 07:55:00
1:15 AM,59.0,57.2,94,29.92,10.0,South,6.9,-,N/A,,Unknown,190,2012-10-28 08:15:00
1:35 AM,59.0,57.2,94,29.92,10.0,SSW,5.8,-,N/A,,Unknown,200,2012-10-28 08:35:00
1:55 AM,59.0,57.2,94,29.93,10.0,SSW,6.9,-,N/A,,Unknown,210,2012-10-28 08:55:00
2:15 AM,57.2,57.2,100,29.94,10.0,SSW,3.5,-,N/A,,Unknown,210,2012-10-28 09:15:00
2:35 AM,57.2,55.4,94,29.94,10.0,SSW,5.8,-,N/A,,Unknown,200,2012-10-28 09:35:00
2:55 AM,57.2,55.4,94,29.95,10.0,SW,3.5,-,N/A,,Unknown,220,2012-10-28 09:55:00
3:15 AM,57.2,55.4,94,29.95,10.0,Calm,Calm,-,N/A,,Unknown,0,2012-10-28 10:15:00
3:35 AM,57.2,55.4,94,29.96,7.0,SW,3.5,-,N/A,,Unknown,220,2012-10-28 10:35:00
3:55 AM,55.4,55.4,100,29.96,10.0,SW,3.5,-,N/A,,Unknown,220,2012-10-28 10:55:00
4:15 AM,55.4,55.4,100,29.96,10.0,South,3.5,-,N/A,,Unknown,190,2012-10-28 11:15:00
4:35 AM,55.4,53.6,94,29.96,8.0,SSW,4.6,-,N/A,,Unknown,200,2012-10-28 11:35:00
4:55 AM,55.4,53.6,94,29.96,10.0,South,4.6,-,N/A,,Unknown,190,2012-10-28 11:55:00
5:15 AM,55.4,53.6,94,29.96,10.0,Calm,Calm,-,N/A,,Unknown,0,2012-10-28 12:15:00
5:35 AM,55.4,53.6,94,29.96,10.0,Calm,Calm,-,N/A,,Unknown,0,2012-10-28 12:35:00
5:55 AM,55.4,53.6,94,29.96,10.0,Calm,Calm,-,N/A,,Unknown,0,2012-10-28 12:55:00
6:15 AM,55.4,53.6,94,29.97,10.0,Calm,Calm,-,N/A,,Unknown,0,2012-10-28 13:15:00
6:35 AM,55.4,53.6,94,29.96,10.0,SSE,3.5,-,N/A,,Unknown,160,2012-10-28 13:35:00
6:55 AM,55.4,53.6,94,29.96,10.0,Calm,Calm,-,N/A,,Unknown,0,2012-10-28 13:55:00
7:15 AM,55.4,53.6,94,29.96,10.0,South,3.5,-,N/A,,Unknown,170,2012-10-28 14:15:00
7:35 AM,55.4,53.6,94,29.96,10.0,Calm,Calm,-,N/A,,Unknown,0,2012-10-28 14:35:00
7:55 AM,53.6,53.6,100,29.97,10.0,Calm,Calm,-,N/A,,Unknown,0,2012-10-28 14:55:00
8:15 AM,53.6,53.6,100,29.97,10.0,Calm,Calm,-,N/A,,Unknown,0,2012-10-28 15:15:00
8:35 AM,53.6,53.6,100,29.97,10.0,Calm,Calm,-,N/A,,Unknown,0,2012-10-28 15:35:00
8:55 AM,53.6,53.6,100,29.97,10.0,Calm,Calm,-,N/A,,Unknown,0,2012-10-28 15:55:00
9:15 AM,55.4,53.6,94,29.97,10.0,SSW,3.5,-,N/A,,Unknown,200,2012-10-28 16:15:00
9:35 AM,53.6,53.6,100,29.98,10.0,Calm,Calm,-,N/A,,Unknown,0,2012-10-28 16:35:00
9:55 AM,53.6,53.6,100,29.98,10.0,Calm,Calm,-,N/A,,Unknown,0,2012-10-28 16:55:00
10:15 AM,55.4,53.6,94,29.98,10.0,SSW,3.5,-,N/A,,Unknown,200,2012-10-28 17:15:00
10:35 AM,55.4,53.6,94,29.97,10.0,SW,3.5,-,N/A,,Unknown,230,2012-10-28 17:35:00
10:55 AM,55.4,53.6,94,29.97,10.0,SW,3.5,-,N/A,,Unknown,230,2012-10-28 17:55:00
11:15 AM,57.2,53.6,88,29.96,10.0,Calm,Calm,-,N/A,,Unknown,0,2012-10-28 18:15:00
11:35 AM,57.2,55.4,94,29.96,10.0,Calm,Calm,-,N/A,,Unknown,0,2012-10-28 18:35:00
11:55 AM,57.2,55.4,94,29.96,10.0,Calm,Calm,-,N/A,,Unknown,0,2012-10-28 18:55:00
12:15 PM,57.2,55.4,94,29.96,10.0,Calm,Calm,-,N/A,,Unknown,0,2012-10-28 19:15:00
12:35 PM,57.2,55.4,94,29.96,10.0,WSW,3.5,-,N/A,,Unknown,250,2012-10-28 19:35:00
12:55 PM,57.2,55.4,94,29.96,10.0,Calm,Calm,-,N/A,,Unknown,0,2012-10-28 19:55:00
1:15 PM,57.2,55.4,94,29.95,10.0,Calm,Calm,-,N/A,Rain,Light Rain,0,2012-10-28 20:15:00
1:35 PM,59.0,55.4,88,29.94,10.0,SSW,3.5,-,N/A,,Unknown,210,2012-10-28 20:35:00
1:55 PM,59.0,57.2,94,29.94,10.0,SW,3.5,-,N/A,,Unknown,230,2012-10-28 20:55:00
2:15 PM,59.0,55.4,88,29.93,10.0,SSW,3.5,-,N/A,Rain,Light Rain,200,2012-10-28 21:15:00
2:35 PM,59.0,55.4,88,29.93,10.0,SSW,4.6,-,N/A,,Unknown,200,2012-10-28 21:35:00
2:55 PM,59.0,55.4,88,29.92,10.0,South,5.8,-,N/A,,Unknown,180,2012-10-28 21:55:00
3:15 PM,59.0,55.4,88,29.92,10.0,South,4.6,-,N/A,,Unknown,190,2012-10-28 22:15:00
3:35 PM,59.0,55.4,88,29.92,10.0,South,6.9,-,N/A,,Unknown,170,2012-10-28 22:35:00
3:55 PM,59.0,55.4,88,29.91,10.0,SSE,4.6,-,N/A,Rain,Light Rain,160,2012-10-28 22:55:00
4:15 PM,57.2,55.4,94,29.91,7.0,South,6.9,-,N/A,Rain,Light Rain,170,2012-10-28 23:15:00
4:35 PM,57.2,53.6,88,29.91,5.0,SSW,5.8,-,0.01,Rain,Light Rain,210,2012-10-28 23:35:00
4:55 PM,55.4,51.8,88,29.90,5.0,Calm,Calm,-,0.03,Rain,Light Rain,0,2012-10-28 23:55:00
5:15 PM,55.4,51.8,88,29.90,3.0,WSW,3.5,-,0.02,Rain,Light Rain,240,2012-10-29 00:15:00
5:35 PM,53.6,53.6,100,29.89,4.0,Calm,Calm,-,0.03,Rain,Light Rain,0,2012-10-29 00:35:00
5:55 PM,53.6,53.6,100,29.89,8.0,Calm,Calm,-,0.04,Rain,Light Rain,0,2012-10-29 00:55:00
6:15 PM,53.6,53.6,100,29.88,10.0,Calm,Calm,-,N/A,Rain,Light Rain,0,2012-10-29 01:15:00
6:55 PM,53.6,53.6,100,29.86,10.0,SE,3.5,-,N/A,Rain,Light Rain,140,2012-10-29 01:55:00
7:55 PM,53.6,53.6,100,29.85,5.0,Calm,Calm,-,0.02,,Mist,0,2012-10-29 02:55:00
8:15 PM,53.6,53.6,100,29.83,8.0,SSW,4.6,-,N/A,,Unknown,200,2012-10-29 03:15:00
8:35 PM,53.6,53.6,100,29.83,6.0,Calm,Calm,-,0.01,Rain,Light Rain,0,2012-10-29 03:35:00
8:55 PM,53.6,53.6,100,29.82,7.0,Calm,Calm,-,0.02,Rain,Light Rain,0,2012-10-29 03:55:00
9:15 PM,53.6,53.6,100,29.82,4.0,SSE,3.5,-,N/A,Rain,Light Rain,160,2012-10-29 04:15:00
9:35 PM,53.6,53.6,100,29.82,3.0,SSE,4.6,-,0.01,Rain,Light Rain,160,2012-10-29 04:35:00
9:55 PM,53.6,53.6,100,29.81,10.0,South,3.5,-,0.02,Rain,Light Rain,190,2012-10-29 04:55:00
10:15 PM,53.6,53.6,100,29.81,2.5,South,4.6,-,0.03,Rain,Light Rain,180,2012-10-29 05:15:00
10:35 PM,53.6,53.6,100,29.81,7.0,South,4.6,-,0.05,Rain,Light Rain,180,2012-10-29 05:35:00
10:55 PM,55.4,53.6,94,29.80,2.5,South,5.8,-,0.05,,Mist,190,2012-10-29 05:55:00
11:35 PM,55.4,55.4,100,29.79,10.0,South,9.2,-,0.01,,Unknown,190,2012-10-29 06:35:00
11:55 PM,57.2,55.4,94,29.79,8.0,South,8.1,-,0.01,,Unknown,190,2012-10-29 06:55:00